Hourly Weather Roundup
Issued by NWS Central Illinois

Home | Current Version | Previous Version | Text Only | Print | Product List | Glossary On
Versions: 1 2 3 4 5 6 7 8 9 10 11 12 13 14 15 16 17 18 19 20 21 22 23 24 25 26 27 28 29 30 31 32 33 34 35 36 37 38 39 40 41 42 43 44 45 46 47 48 49 50
000
NZUS43 KILX 121510
HWRILX

Area Weather Roundup
National Weather Service Lincoln IL
900 AM CST TUE DEC 12 2017

NOTE:  "FAIR" indicates few or no clouds below 12,000 feet, with
       no sigificant weather and/or obstructions to visibility.


CITY           SKY/WX    TMP DP  RH WIND       PRES   REMARKS
Bloomington    PTSUNNY   20  13  74 NW18G24   30.15R WCI   5
Champaign      SUNNY     22  10  60 NW22G29   30.14R WCI   6
Danville       MOSUNNY   21  11  64 NW16G23   30.08R WCI   7
Decatur        MOSUNNY   23  13  65 NW16G26   30.17R WCI  10
Effingham      MOSUNNY   27  17  67 NW21      30.18R WCI  13
Flora          MOSUNNY   29  18  63 NW13      30.18R WCI  19
Galesburg      SUNNY     21  15  80 NW14G21   30.20S WCI   8
Jacksonville   SUNNY     24  14  66 NW14G21   30.22S WCI  11
Lacon          MOSUNNY   20  11  69 NW13      30.18R WCI   7
Lawrenceville  SUNNY     29  14  53 N23       30.14R WCI  15
Litchfield     SUNNY     25  15  65 NW15G22   30.21R WCI  13
$$


CITY           SKY/WX    TMP DP  RH WIND       PRES   REMARKS
Lincoln        SUNNY     24  14  68 NW13G20   30.18S WCI  12
Macomb         PTSUNNY   20  16  83 NW18      30.24R WCI   5
Mattoon        MOSUNNY   24  14  65 NW24G30   30.13R WCI   8
Mt Carmel AP   NOT AVBL
Olney-Noble AP SUNNY     28  13  54 NW20      30.17R WCI  14
Paris AP       MOSUNNY   23  13  65 NW15G25   30.13R WCI  10
Peoria         SUNNY     21  10  62 NW13G22   30.19R WCI   9
Pontiac        PTSUNNY   20  10  65 NW21      30.15R WCI   4
Rantoul        SUNNY     22  12  65 NW20G25   30.12R WCI   7
Robinson       MOSUNNY   26  14  60 NW16G23   30.15R WCI  14
Springfield    SUNNY     25  15  66 NW15G25   30.20R WCI  13
Taylorville    SUNNY     25  13  62 NW16      30.20R WCI  12
$$

...REGIONAL REPORTS...


CITY           SKY/WX    TMP DP  RH WIND       PRES   REMARKS
Chicago O`Hare MOSUNNY   18   6  59 NW20G29   30.09R WCI   2
Kankakee       SUNNY     20   7  56 NW16G23   30.12R WCI   6
Moline         MOSUNNY   20  12  71 NW15      30.20R WCI   6
Mount Sterling MOSUNNY   22  15  75 NW15      30.22S WCI   8
Mount Vernon   SUNNY     29  18  63 VRB6      30.19R WCI  23
Pittsfield     SUNNY     24  17  74 W13       30.25R WCI  13
Quincy         SUNNY     22  13  68 NW16      30.24R WCI   8
Rockford       MOSUNNY   16   7  67 NW12      30.14S WCI   3
$$


CITY           SKY/WX    TMP DP  RH WIND       PRES   REMARKS
Burlington     SUNNY     19  13  77 NW10G20   30.23R WCI   7
Cedar Rapids   SUNNY     15   9  76 NW14      30.21S WCI   0
Des Moines     MOSUNNY   17   9  70 NW14      30.29R WCI   3
Kirksville     SUNNY     20  11  68 W12       30.28R WCI   8
Ottumwa        SUNNY     18   7  62 NW14      30.26R WCI   4
St Louis       MOSUNNY   29  19  66 NW17      30.24R WCI  17
$$


CITY           SKY/WX    TMP DP  RH WIND       PRES   REMARKS
Terre Haute    SUNNY     24  11  57 NW20G28   30.11R WCI  10
Evansville     PTSUNNY   32  21  64 NW15G26   30.13R WCI  22
Indianapolis   MOSUNNY   25  13  60 NW16G29   30.03R WCI  12
Lafayette      SUNNY     21  10  62 NW15G29   30.07R WCI   8
Madison        PTSUNNY   14   4  64 NW15G22   30.10S WCI  -1
Milwaukee      PTSUNNY   18   6  59 NW13G23   30.06R WCI   5
$$






USA.gov is the U.S. government's official web portal to all federal, state and local government web resources and services.